This is the latest recevied weather packets stored in our database for station/object W0CHP-13. If no packets are shown the sender has not sent any weather packets the latest 10 day(s).
| Time | Temp. | Humidity | Pressure | Rain* | Wind** | Luminosity | Snow |
|---|---|---|---|---|---|---|---|
| 1777680436 | 11.67° C | 29% | 1016.1 hPa | 0 mm | - | 36 W/m² | - |
| 1777679835 | 11.67° C | 29% | 1015.9 hPa | 0 mm | - | 67 W/m² | - |
| 1777679237 | 11.67° C | 27% | 1015.8 hPa | 0 mm | - | 97 W/m² | - |
| 1777678635 | 11.67° C | 27% | 1016 hPa | 0 mm | - | 65 W/m² | - |
| 1777678037 | 11.67° C | 29% | 1015.8 hPa | 0 mm | - | 70 W/m² | - |
| 1777677435 | 11.67° C | 28% | 1016 hPa | 0 mm | - | 202 W/m² | - |
| 1777676838 | 11.67° C | 28% | 1016.1 hPa | 0 mm | - | 92 W/m² | - |
| 1777676236 | 12.22° C | 27% | 1015.8 hPa | 0 mm | - | 75 W/m² | - |
| 1777675638 | 12.22° C | 27% | 1015.8 hPa | 0 mm | - | 279 W/m² | - |
| 1777675037 | 12.22° C | 26% | 1015.8 hPa | 0 mm | - | 140 W/m² | - |
| 1777674436 | 12.22° C | 26% | 1016 hPa | 0 mm | - | 145 W/m² | - |
| 1777673837 | 12.78° C | 24% | 1015.8 hPa | 0 mm | - | 378 W/m² | - |
| 1777673235 | 13.33° C | 25% | 1015.8 hPa | 0 mm | - | 450 W/m² | - |
| 1777672637 | 12.78° C | 26% | 1015.8 hPa | 0 mm | - | 530 W/m² | - |
| 1777672036 | 12.22° C | 25% | 1015.8 hPa | 0 mm | - | 516 W/m² | - |
| 1777671438 | 12.22° C | 25% | 1015.8 hPa | 0 mm | - | 321 W/m² | - |
| 1777670836 | 12.78° C | 27% | 1015.8 hPa | 0 mm | - | 487 W/m² | - |
| 1777670238 | 12.78° C | 27% | 1015.8 hPa | 0 mm | - | 651 W/m² | - |
| 1777669636 | 12.22° C | 26% | 1015.8 hPa | 0 mm | - | 167 W/m² | - |
| 1777669035 | 12.78° C | 26% | 1015.6 hPa | 0 mm | - | 124 W/m² | - |
| 1777668437 | 12.78° C | 25% | 1015.8 hPa | 0 mm | - | 712 W/m² | - |
| 1777667835 | 12.78° C | 25% | 1015.8 hPa | 0 mm | - | 573 W/m² | - |
| 1777667237 | 13.89° C | 24% | 1016 hPa | 0 mm | - | 219 W/m² | - |
| 1777666636 | 14.44° C | 25% | 1016.1 hPa | 0 mm | - | 796 W/m² | - |
| 1777666038 | 13.89° C | 25% | 1015.9 hPa | 0 mm | - | 766 W/m² | - |
* Rain latest hour (hover to see other rain measurements)
** Current wind speed in m/s (hover to see current wind gust speed)